Everett, WA
on Friday, November 16, 2012

Friday
Previous Day Next Day
Daily Summary
 ActualAverageRecord
Temperature
Mean Temperature °F °F  
Max Temperature 48°F 50°F 59°F (1976)
Min Temperature 35°F 38°F 10°F (1955)
Degree Days
Heating Degree Days 24    
Moisture
Dew Point 37°F   
Average Humidity 87    
Maximum Humidity 100    
Minimum Humidity 66    
Precipitation
Precipitation 0.27 in in in ()
Wind
Wind Speed 5 mph   
Max Wind Speed 13 mph   
Max Gust Speed mph   
Visibility 6 miles   
Events Fog , Rain , Snow   
Averages and records for this station are not official NWS values.
Key: T is trace of precipitation, MM is missing value
Source: NWS Daily Summary
Seasonal Weather Averages
Time(PST)TemperatureDew PointHumidity Pressure Visibility Wind DirectionWind SpeedGust SpeedPrecipitationEvents Conditions
12:43 AM 39.2°F 37.4°F 93% 29.93 in 2.5 miles SSE 4.6 mph - N/A   Scattered Clouds
12:47 AM 39.2°F 37.4°F 93% 29.93 in 1.0 miles SSE 5.8 mph - N/A   Mist
12:53 AM 39.0°F 37.0°F 93% 29.94 in 0.2 miles South 4.6 mph - N/A Fog Fog
1:00 AM 37.4°F 37.4°F 100% 29.93 in 0.2 miles South 4.6 mph - 0.00 in Fog , Snow Light Snow
1:26 AM 35.6°F 33.8°F 93% 29.93 in 0.5 miles South 3.5 mph - 0.00 in Fog , Snow Light Snow
1:53 AM 36.0°F 35.1°F 97% 29.94 in 0.5 miles Calm Calm - 0.00 in Fog Fog
2:06 AM 37.4°F 35.6°F 93% 29.92 in 2.0 miles Variable 3.5 mph - N/A   Mostly Cloudy
2:15 AM 37.4°F 35.6°F 93% 29.92 in 4.0 miles Variable 3.5 mph - N/A   Mostly Cloudy
2:23 AM 37.4°F 35.6°F 93% 29.92 in 6.0 miles Variable 3.5 mph - N/A   Scattered Clouds
2:53 AM 36.0°F 34.0°F 93% 29.92 in 5.0 miles SSE 4.6 mph - N/A   Partly Cloudy
3:14 AM 35.6°F 33.8°F 93% 29.91 in 1.8 miles SSE 5.8 mph - N/A   Scattered Clouds
3:21 AM 35.6°F 35.6°F 100% 29.91 in 1.0 miles Calm Calm - N/A   Mist
3:32 AM 35.6°F 35.6°F 100% 29.90 in 1.2 miles Calm Calm - N/A   Overcast
3:45 AM 35.6°F 35.6°F 100% 29.90 in 0.5 miles ESE 3.5 mph - N/A Fog Fog
3:53 AM 36.0°F 35.1°F 97% 29.91 in 0.8 miles Calm Calm - N/A   Overcast
3:58 AM 35.6°F 35.6°F 100% 29.90 in 2.0 miles Calm Calm - N/A   Overcast
4:06 AM 35.6°F 33.8°F 93% 29.90 in 6.0 miles Calm Calm - N/A   Overcast
4:53 AM 37.9°F 36.0°F 93% 29.91 in 10.0 miles ESE 3.5 mph - N/A   Overcast
5:53 AM 39.0°F 35.1°F 86% 29.91 in 10.0 miles SSE 5.8 mph - N/A   Overcast
6:53 AM 39.0°F 35.1°F 86% 29.90 in 10.0 miles SSE 6.9 mph - N/A   Overcast
7:53 AM 39.0°F 35.1°F 86% 29.90 in 10.0 miles SSE 10.4 mph - N/A   Scattered Clouds
8:53 AM 41.0°F 34.0°F 76% 29.90 in 10.0 miles SSE 12.7 mph - N/A   Mostly Cloudy
9:53 AM 41.0°F 34.0°F 76% 29.91 in 10.0 miles SSE 10.4 mph - N/A   Overcast
10:53 AM 43.0°F 36.0°F 76% 29.92 in 10.0 miles SSE 10.4 mph - N/A   Overcast
11:53 AM 45.0°F 37.0°F 74% 29.90 in 10.0 miles SE 6.9 mph - N/A   Overcast
12:53 PM 46.0°F 36.0°F 68% 29.88 in 10.0 miles SSE 10.4 mph - N/A   Overcast
1:53 PM 46.9°F 37.0°F 68% 29.86 in 10.0 miles Variable 4.6 mph - N/A   Overcast
2:53 PM 48.9°F 37.9°F 66% 29.84 in 10.0 miles SE 8.1 mph - N/A   Overcast
3:53 PM 48.0°F 41.0°F 77% 29.83 in 8.0 miles Variable 5.8 mph - 0.03 in Rain Light Rain
4:53 PM 46.0°F 41.0°F 83% 29.81 in 6.0 miles ESE 10.4 mph - 0.02 in Rain Light Rain
5:53 PM 45.0°F 42.1°F 90% 29.79 in 7.0 miles East 8.1 mph - 0.07 in Rain Light Rain
6:50 PM 44.6°F 41.0°F 87% 29.77 in 7.0 miles Variable 5.8 mph - 0.05 in Rain Light Rain
6:53 PM 45.0°F 41.0°F 86% 29.78 in 8.0 miles ESE 6.9 mph - 0.05 in Rain Light Rain
7:53 PM 46.0°F 42.1°F 86% 29.76 in 10.0 miles ESE 9.2 mph - 0.03 in Rain Light Rain
8:53 PM 46.9°F 41.0°F 80% 29.74 in 10.0 miles SE 5.8 mph - 0.01 in Rain Light Rain
9:53 PM 48.0°F 41.0°F 77% 29.74 in 8.0 miles Variable 5.8 mph - 0.02 in Rain Light Rain
10:53 PM 48.0°F 42.1°F 80% 29.72 in 10.0 miles ESE 9.2 mph - 0.02 in   Overcast
11:53 PM 48.0°F 42.1°F 80% 29.72 in 8.0 miles SSE 9.2 mph - 0.02 in Rain Light Rain
Moon Phase
Nov. 16 Nov. 20 Nov. 28 Dec. 06 Dec. 13
Sunrise:07:17 AM (PST) Moon Rise:10:20 AM (PST)11/16
Sunset:04:29 PM (PST) Moon Set:07:33 PM (PST)11/16

Copyright © 2014 The Weather Underground, Inc.